Weather Service Report


393 
ASUS44 KBMX 302010
RWRAL 
             
ALABAMA REGIONAL WEATHER ROUNDUP
NATIONAL WEATHER SERVICE BIRMINGHAM AL
200 PM CST FRI JAN 30 2015

NOTE: "FAIR" INDICATES FEW OR NO CLOUDS BELOW 12,000 FEET
WITH NO SIGNIFICANT WEATHER AND/OR OBSTRUCTIONS TO VISIBILITY.

THE REMARK "TC" DENOTES TEMPERATURE IN DEGREES CELSIUS.

ALZ001>011-014-016>018-020-302100-
NORTH ALABAMA
  
CITY           SKY/WX    TMP DP  RH WIND       PRES   REMARKS
MUSCLE SHOALS  SUNNY     48  24  39 NE7       30.41F                  
HUNTSVILLE     MOSUNNY   48  23  37 N12       30.38F                  
DECATUR        SUNNY     47  22  37 N10       30.40F                  
HALEYVILLE       N/A     45  23  42 VRB6      30.40F                  
GADSDEN        SUNNY    N/A N/A N/A NW13      30.35S                  
$$
 
ALZ012-013-022-023-030>036-040>044-302100-
WEST CENTRAL ALABAMA
  
CITY           SKY/WX    TMP DP  RH WIND       PRES   REMARKS
TUSCALOOSA     SUNNY     56  25  30 N10       30.36F                  
$$
 
ALZ015-024>027-033>036-040>044-302100-
CENTRAL ALABAMA
  
CITY           SKY/WX    TMP DP  RH WIND       PRES   REMARKS
BIRMINGHAM     MOSUNNY   50  21  32 N14       30.37F                  
MONTGOMERY     SUNNY     59  25  27 N10       30.32F                  
SHELBY CO ARPT SUNNY     53  24  32 NW10G18   30.34F                  
MAXWELL AFB    SUNNY     57  25  29 N15       30.31F                  
GREENVILLE     FAIR      58  26  29 N10G20    30.29F                  
$$
 
ALZ019-021-028-029-037-038-045>048-302100-
EAST CENTRAL ALABAMA
  
CITY           SKY/WX    TMP DP  RH WIND       PRES   REMARKS
ANNISTON       SUNNY     51  22  31 N10       30.33F                  
ALEXANDER CITY SUNNY     57  21  24 NW15      30.30F                  
AUBURN         SUNNY     54  25  32 N9        30.31S                  
$$
 
ALZ051>064-302100-
SOUTHWEST ALABAMA
  
CITY           SKY/WX    TMP DP  RH WIND       PRES   REMARKS
MOBILE         PTSUNNY   58  29  33 N14       30.30F                  
BROOKLEY FIELD PTSUNNY   61  31  32 N10       30.30F                  
EVERGREEN      MOSUNNY   59  29  31 N8G18     30.30F                  
$$

ALZ049-050-065>069-302100-
SOUTHEAST ALABAMA
  
CITY           SKY/WX    TMP DP  RH WIND       PRES   REMARKS
DOTHAN         SUNNY     60  29  30 N12       30.29F                  
OZARK          SUNNY     60  26  28 NW15      30.26F                  
TROY           SUNNY     58  26  29 NW9       30.29F                  
EUFAULA        FAIR      60  26  27 VRB6      30.26F                  
$$

Return to Home page


Western Regional Climate Center, wrcc@dri.edu